Torna al catalogo

CHINASAT 1A

AttivoComunicazioniGEO
NORAD 37804·PAYLOAD·🇨🇳 China

Lanciato Sep 17, 2011 da Xichang Satellite Launch Center

Loading…

TLE

AggiornatoSource: Space-Track

Epoca: Sep 14, 2026, 14:05 UTC

1 37804U 11047A   26257.58697440  .00000081  00000-0  00000-0 0  9999
2 37804   3.9423  77.1920 0001187 238.6074 308.7345  1.00020765 28223

Traccia CHINASAT 1A in tempo reale con AllMySat

Download on the App Store